COSMOS 2251 DEB, 37280

Orbit data source: Space-Track

COSMOS 2251 DEB, 37280 is space debris in LEO originally from a launch on Wed, 16 Jun 1993 UTC launched from the Plesetsk Missile And Space Complex (PKMTR). The debris from Iridium 33, an American commercial communications satellite, has been tracked extensively since its accidental collision with the defunct Russian satellite Cosmos 2251 in 2009. This event, occurring at high speed in low Earth orbit (LEO), generated thousands of pieces of space debris, significantly increasing the risk of further collisions. The Iridium 33 debris cloud has impacted space traffic management and orbital debris mitigation strategies, making it a subject of ongoing study in space situational awareness.

Loading next visibility...
Identifier
37280, 1993-036BHU
Orbit
LEO
Country
Flag of CISCIS
Related business
Manufacturer
Unknown
Mission
Spacecraft
Bus & Motor
Unknown
Mass
Unknown
Launch date (UTC)
1993-06-16 (33 years ago)
Launch vehicle
Unknown
Launch site
Plesetsk Missile And Space Complex (PKMTR)
Object type
Payload
Rocket body
Debris
Shape & HBR
Unknown shape, 0.1 m
Radar Cross Section
Small (<0.1 m²)

Expand to show TLE details & history
Last TLE update: 3 days ago

TLE from 3 days ago
0 COSMOS 2251 DEB
1 37280U 93036BHU 26255.35675638  .00001360  00000-0  58989-3 0  9996
2 37280  74.0277 287.3327 0132691 348.4592  11.3516 14.20545571612075
Epoch: 2026-09-12T08:33Z
TLE epoch observation values (Epoch: 2026-09-12T08:33:43.751Z)
Latitude
-0.00003°
Longitude
167.53347°
Altitude
732.446 km
Speed
7.538 km/s
True Right ascension
19h 09m 19s
True Declination
0° 00' 00"
Sunlit
Object was in full shadow at epoch
Visualization orbit readout
Latitude
Unknown
Longitude
Unknown
Altitude
Unknown
Speed
Unknown
Apparent Right ascension
Unknown
Apparent Declination
Unknown
Sunlit
N/A
Visualization observer readout
Local Sidereal Time
16:29:17
Azimuth
Unknown
Elevation
Unknown
Doppler factor
Unknown
Orbital elements
Apogee altitude
916.678 km
Perigee altitude
725.621 km
Semi-major axis
7,199.287 km
Eccentricity
0.01327
Inclination
74.0277°
RAAN
287.3327°
Arg. of periapsis
348.4592°
True anomaly
11.65583°
Mean anomaly
11.3516°
Eccentric anomaly
11.50321°
Mean motion
3.55311 °/min
Orbital period
101.32 mins
BSTAR
0.00058989
Loading maneuver chart data...
Computing Atmospheric mass density...

Documentation

Showing up to 5 results
|